Location: Casilda
(33.0440°S, 61.1680°W)
Time: 17:08:36
(UTC-03:00)

ISS - Pass Details

Date: 19 May 2022
Orbit: 414 x 421 km, 51.6° (Epoch: 25 May)

Event Time Altitude Azimuth Distance (km) Brightness Sun altitude
Rises 06:29:26 0° 338° (NNW) 2,348 0.0 -17.1°
Reaches altitude 10° 06:31:41 10° 350° (N) 1,494 -0.9 -16.6°
Maximum altitude 06:34:36 28° 50° (NE) 830 -1.6 -16.0°
Drops below altitude 10° 06:37:34 10° 111° (ESE) 1,516 -0.1 -15.4°
Sets 06:39:52 0° 123° (ESE) 2,390 0.8 -15.0°
